Regional Weather Roundup
Issued by NWS

Home | Current Version | Previous Version | Graphics & Text | Print | Product List | Glossary On
Versions: 1 2 3 4 5 6 7 8 9 10 11 12 13 14 15 16 17 18 19 20 21 22 23 24 25 26 27 28 29 30 31 32 33 34 35 36 37 38 39 40 41 42 43 44 45 46 47 48 49 50
000
ASUS43 KBIS 240802
RWRND

NORTH DAKOTA REGIONAL WEATHER ROUNDUP
NATIONAL WEATHER SERVICE BISMARCK ND
300 AM CDT TUE APR 24 2018

NOTE: "FAIR" INDICATES FEW OR NO CLOUDS BELOW 12,000 FEET WITH NO
SIGNIFICANT WEATHER AND/OR OBSTRUCTIONS TO VISIBILITY.


NDZ001>003-009>011-017-240900-
NORTHWEST NORTH DAKOTA

CITY           SKY/WX    TMP DP  RH WIND       PRES   REMARKS
WILLISTON      PTCLDY    29  22  75 CALM      30.44R
MINOT          PTCLDY    33  25  72 NW10      30.38R
$$

NDZ018>021-031>035-040>046-240900-
SOUTHWEST NORTH DAKOTA

CITY           SKY/WX    TMP DP  RH WIND       PRES   REMARKS
BISMARCK       RAIN      41  36  82 N21G26    30.34R
DICKINSON      CLOUDY    38  32  79 N6        30.36S
GARRISON         N/A     37  31  78 N8        30.37R
HETTINGER ARPT MIX PCPN  33  31  92 N20       30.36S FOG
$$

NDZ004>008-012>016-024-026-027-054-240900-
NORTHEAST NORTH DAKOTA

CITY           SKY/WX    TMP DP  RH WIND       PRES   REMARKS
GRAND FORKS    CLOUDY    43  36  76 N13       30.26R
DEVILS LAKE    CLOUDY    40  32  73 N8        30.32R
$$

NDZ022-023-025-028>030-036>039-047>053-240900-
SOUTHEAST NORTH DAKOTA

CITY           SKY/WX    TMP DP  RH WIND       PRES   REMARKS
FARGO          CLOUDY    49  38  65 N18       30.20F
JAMESTOWN      CLOUDY    43  34  70 N16       30.26R
$$





USA.gov is the U.S. government's official web portal to all federal, state and local government web resources and services.